Location: Cluj-Napoca
(46.7712°N, 23.6236°E)
Time: 22:37:14
(UTC+02:00)

ISS - Pass Details

Date: 24 January 2020
Orbit: 415 x 423 km, 51.6° (Epoch: 28 February)

Event Time Altitude Azimuth Distance (km) Brightness Sun altitude
Rises 19:20:15 0° 255° (WSW) 2,375 1.6 -21.1°
Reaches altitude 10° 19:22:23 10° 259° (W) 1,511 0.2 -21.4°
Enters shadow 19:25:24 55° 311° (NW) 517 -3.2 -22.0°
